Concord, CA

1:46 AM PST on December 18, 2017 (GMT -0800)
Buchanan

Weather History for KCCR - August, 2013

Change the Weather History Date:

Saturday, August 10, 2013

  Actual Average Record
Temperature  
Mean Temperature 69 °F 72 °F  
Max Temperature 80 °F 87 °F 101 °F (2009)
Min Temperature 57 °F 58 °F 53 °F (2010)
Degree Days  
Heating Degree Days 0    
Month to date heating degree days 2  
Since 1 June heating degree days 17  
Since 1 July heating degree days 6  
Cooling Degree Days 4    
Month to date cooling degree days 29  
Year to date cooling degree days 497  
Since 1 June cooling degree days 405  
Growing Degree Days 18 (Base 50)    
Moisture  
Dew Point 54 °F    
Average Humidity 64    
Maximum Humidity 86    
Minimum Humidity 42    
Precipitation  
Precipitation 0.00 in - 0.00 in (2017)
Month to date precipitation 0.00  
Year to date precipitation 2.06  
Since 1 July precipitation 0.00  
Sea Level Pressure  
Sea Level Pressure 29.97 in    
Wind  
Wind Speed 10 mph (SW)    
Max Wind Speed 17 mph    
Max Gust Speed 22 mph    
Visibility 10 miles    
Events      
T = Trace of Precipitation, MM = Missing Value Source: NWS Daily Summary

Daily Weather History Graph

Daily Weather History Graph

Search for Another Location

Airport or City:

Trip Planner

Search our weather history database for the weather conditions in past years. The results will help you decide how hot, cold, wet, or windy it might be!

Date:

Astronomy

Aug. 10, 2013 Rise Set
Actual Time 6:19 AM PDT 8:07 PM PDT
Civil Twilight 5:50 AM PDT 8:35 PM PDT
Nautical Twilight 5:16 AM PDT 9:09 PM PDT
Astronomical Twilight 4:39 AM PDT 9:46 PM PDT
Moon 10:06 AM PDT (8/10) 9:57 PM PDT (8/10)
Length of Visible Light 14h 44m
Length of Day
13h 47m
Waxing Crescent, 15% of the Moon is Illuminated
Aug 10
Waxing Crescent
Aug 14
First Quarter
Aug 20
Full
Aug 28
Last Quarter
Sep 5
New

Hourly Weather History & Observations

Time (PDT) Temp. Dew Point Humidity Pressure Visibility Wind Dir Wind Speed Gust Speed Precip Events Conditions
12:10 AM 57.2 °F 53.6 °F 88% 29.99 in 10.0 mi SW 12.7 mph - N/A   Scattered Clouds
12:25 AM 57.2 °F 53.6 °F 88% 30.00 in 10.0 mi SW 10.4 mph - N/A   Mostly Cloudy
12:53 AM 57.9 °F 53.1 °F 84% 29.96 in 10.0 mi SW 5.8 mph - N/A   Overcast
1:53 AM 57.9 °F 53.1 °F 84% 29.96 in 10.0 mi WSW 8.1 mph - N/A   Overcast
2:53 AM 57.9 °F 53.1 °F 84% 29.96 in 10.0 mi WSW 11.5 mph - N/A   Overcast
3:53 AM 57.0 °F 53.1 °F 87% 29.96 in 10.0 mi West 8.1 mph - N/A   Overcast
4:53 AM 57.9 °F 53.1 °F 84% 29.96 in 10.0 mi WSW 6.9 mph - N/A   Overcast
5:53 AM 57.9 °F 54.0 °F 87% 29.96 in 10.0 mi SSW 9.2 mph - N/A   Overcast
6:53 AM 57.9 °F 54.0 °F 87% 29.97 in 10.0 mi SW 6.9 mph - N/A   Overcast
7:53 AM 59.0 °F 53.1 °F 81% 29.99 in 10.0 mi South 9.2 mph - N/A   Overcast
8:53 AM 61.0 °F 53.1 °F 75% 29.99 in 10.0 mi SSW 11.5 mph - N/A   Overcast
9:53 AM 64.0 °F 54.0 °F 70% 30.00 in 10.0 mi SSW 5.8 mph - N/A   Scattered Clouds
10:53 AM 68.0 °F 54.0 °F 61% 30.00 in 10.0 mi South 10.4 mph - N/A   Clear
11:53 AM 70.0 °F 54.0 °F 57% 29.99 in 10.0 mi SW 9.2 mph - N/A   Clear
12:53 PM 75.0 °F 54.0 °F 48% 29.98 in 10.0 mi West 10.4 mph - N/A   Clear
1:53 PM 77.0 °F 53.1 °F 43% 29.96 in 10.0 mi West 10.4 mph 16.1 mph N/A   Clear
2:53 PM 78.1 °F 53.1 °F 42% 29.96 in 10.0 mi West 11.5 mph - N/A   Clear
3:53 PM 78.1 °F 54.0 °F 43% 29.95 in 10.0 mi West 12.7 mph - N/A   Clear
4:53 PM 78.1 °F 54.0 °F 43% 29.94 in 10.0 mi West 13.8 mph 18.4 mph N/A   Clear
5:53 PM 73.9 °F 54.0 °F 50% 29.95 in 10.0 mi West 11.5 mph - N/A   Clear
6:53 PM 69.1 °F 55.0 °F 61% 29.95 in 10.0 mi West 9.2 mph - N/A   Clear
7:53 PM 66.0 °F 55.0 °F 68% 29.95 in 10.0 mi West 10.4 mph - N/A   Clear
8:53 PM 63.0 °F 55.0 °F 75% 29.96 in 10.0 mi SSW 10.4 mph - N/A   Clear
9:53 PM 61.0 °F 55.0 °F 81% 29.97 in 10.0 mi SW 12.7 mph - N/A   Clear
10:53 PM 60.1 °F 55.9 °F 86% 29.97 in 10.0 mi South 10.4 mph - N/A   Clear
11:53 PM 60.1 °F 55.0 °F 83% 29.97 in 10.0 mi South 12.7 mph - N/A   Clear